軌道要素
P/2010 G7-A (PANSTARRS)
Epoch = 2010 Nov. 20.0 TT
T = 2010 Nov. 1.08713 TT Peri. = 45.87088
e = 0.2348393 Node = 200.33184 2000.0
q = 2.4195771 AU Incl. = 14.35335
a = 3.1621815 AU n = 0.17527658 P = 5.62 years
P/2010 G7-B (PANSTARRS)
Epoch = 2010 Nov. 20.0 TT
T = 2010 Nov. 1.01424 TT Peri. = 45.85305
e = 0.2348116 Node = 200.33128 2000.0
q = 2.4196650 AU Incl. = 14.35451
a = 3.1621822 AU n = 0.17527652 P = 5.62 years
|